Home   Weather   Naha   Past weeks
Flag for Japan

Past Weather in Naha, Okinawa, Japan — Yesterday and Last 2 Weeks

Now
68 °F

Partly sunny.


Feels Like: 68 °F
Forecast: 73 / 61 °F
Wind: 13 mph from North

Location: Naha Airport

Current Time: Mar 24, 2019 at 12:43:00 pm

Latest Report: Mar 24, 2019 at 11:30 am


Visibility: N/A

Pressure: 30.12 "Hg

Humidity: 49%

Dew Point: 48 °F

Location of NahaLocation

Past Weather in Naha — Graph

°F

Naha Temperature Yesterday

Maximum temperature yesterday: 68 °F (at 12:00 am)
Minimum temperature yesterday: 63 °F (at 5:00 am)
Average temperature yesterday: 65 °F

High & Low Weather Summary for the Past Weeks

 TemperatureHumidityPressure
High79 °F (Mar 21, 11:30 am)94% (Mar 22, 12:00 am)30.24 "Hg (Mar 22, 12:00 am)
Low61 °F (Mar 14, 3:00 am)33% (Mar 13, 10:00 am)29.62 "Hg (Mar 10, 2:00 am)
Average68 °F63%30.03 "Hg
* Reported Mar 9 11:00 am — Mar 24 11:30 am, Naha. Weather by CustomWeather, © 2019

Note: Actual official high and low records may vary slightly from our data, if they occured in-between our weather recording intervals... More about our weather records

Advertising

Naha Weather History for the Previous 24 Hours

Scroll right to see more
 ConditionsComfort  
Time TempWeatherWind HumidityBarometerVisibility
11:30 am
Sun, Mar 24
68 °FPartly sunny.13 mph49%30.12 "HgN/A
11:00 am66 °FBroken clouds.13 mph49%30.15 "HgN/A
10:30 am66 °FPartly sunny.12 mph52%30.15 "HgN/A
9:30 am64 °FPartly sunny.12 mph52%30.15 "HgN/A
9:00 am64 °FBroken clouds.14 mph52%30.15 "HgN/A
8:30 am63 °FPartly sunny.9 mph52%30.15 "HgN/A
8:00 am63 °FPartly sunny.9 mph52%30.15 "HgN/A
7:30 am63 °FPartly sunny.8 mph52%30.15 "HgN/A
7:00 am61 °FPartly sunny.8 mph55%30.12 "HgN/A
6:30 am63 °FPartly sunny.7 mph52%30.12 "HgN/A
6:00 am61 °FPartly cloudy.7 mph52%30.12 "HgN/A
5:30 am61 °FPartly cloudy.7 mph55%30.12 "HgN/A
5:00 am61 °FPartly cloudy.7 mph55%30.12 "HgN/A
4:30 am61 °FPartly cloudy.10 mph52%30.09 "HgN/A
4:00 am61 °FPassing clouds.10 mph52%30.09 "HgN/A
3:30 am61 °FPassing clouds.12 mph55%30.09 "HgN/A
3:00 am61 °FPassing clouds.16 mph55%30.09 "HgN/A
2:30 am61 °FPassing clouds.15 mph52%30.09 "HgN/A
2:00 am61 °FPassing clouds.15 mph55%30.12 "HgN/A
1:30 am61 °FPassing clouds.17 mph55%30.12 "HgN/A
1:00 am61 °FPassing clouds.16 mph52%30.12 "HgN/A
12:30 am61 °FPassing clouds.15 mph52%30.15 "HgN/A
12:00 am63 °FPassing clouds.16 mph49%30.15 "HgN/A
11:30 pm
Sat, Mar 23
63 °FPassing clouds.17 mph52%30.15 "HgN/A
11:00 pm63 °FPassing clouds.16 mph56%30.15 "HgN/A
10:30 pm63 °FPassing clouds.22 mph52%30.15 "HgN/A
10:00 pm63 °FPassing clouds.25 mph56%30.12 "HgN/A
9:30 pm64 °FPassing clouds.22 mph56%30.12 "HgN/A
9:00 pm64 °FPartly cloudy.23 mph56%30.12 "HgN/A
8:30 pm64 °FPartly cloudy.23 mph56%30.09 "HgN/A
8:00 pm64 °FPartly cloudy.25 mph60%30.09 "HgN/A
7:44 pm64 °FPartly cloudy.23 mph64%30.09 "HgN/A
7:30 pm64 °FPartly cloudy.24 mph60%30.09 "HgN/A
7:00 pm64 °FSprinkles. Partly cloudy.25 mph64%30.07 "HgN/A
6:30 pm64 °FBroken clouds.20 mph68%30.07 "HgN/A
6:00 pm64 °FBroken clouds.23 mph68%30.07 "HgN/A
5:30 pm66 °FBroken clouds.18 mph60%30.04 "HgN/A
5:00 pm66 °FBroken clouds.21 mph64%30.04 "HgN/A
4:30 pm66 °FBroken clouds.17 mph60%30.04 "HgN/A
4:00 pm66 °FPartly sunny.22 mph60%30.04 "HgN/A
3:30 pm66 °FPartly sunny.18 mph64%30.04 "HgN/A
3:00 pm66 °FPartly sunny.17 mph64%30.01 "HgN/A
2:30 pm66 °FPartly sunny.17 mph64%30.04 "HgN/A
2:00 pm66 °FBroken clouds.17 mph68%30.04 "HgN/A
1:30 pm66 °FBroken clouds.15 mph68%30.04 "HgN/A
1:00 pm64 °FBroken clouds.17 mph73%30.04 "HgN/A
12:30 pm64 °FSprinkles. Broken clouds.17 mph73%30.04 "HgN/A
12:00 pm66 °FPartly sunny.17 mph68%30.04 "HgN/A
Weather by CustomWeather, © 2019

See weather overview